| time (UTC) | temp F | wind direction | speed MPH | gust MPH | rain 1hr in | rain 24hr in | rain mn in | humidity % | barometer mb |
| 20260904184004 | 91 | 0 | 0.0 | 0.0 | 0.00 | 0.49 | 0.02 | 72 | 1014.9 |
| 20260904183004 | 91 | 55 | 0.0 | 1.0 | 0.00 | 0.49 | 0.02 | 72 | 1015.1 |
| 20260904182025 | 92 | 0 | 0.0 | 0.0 | 0.00 | 0.49 | 0.02 | 73 | 1015.2 |
| 20260904181004 | 91 | 0 | 0.0 | 0.0 | 0.02 | 0.49 | 0.02 | 75 | 1015.4 |
| 20260904180004 | 90 | 0 | 0.0 | 0.0 | 0.02 | 0.49 | 0.02 | 77 | 1015.5 |
| 20260904175005 | 90 | 0 | 0.0 | 0.0 | 0.02 | 0.49 | 0.02 | 77 | 1015.6 |
| 20260904174004 | 89 | 0 | 0.0 | 0.0 | 0.02 | 0.49 | 0.02 | 80 | 1015.9 |
| 20260904173025 | 89 | 0 | 0.0 | 0.0 | 0.02 | 0.49 | 0.02 | 80 | 1015.8 |
| 20260904172004 | 89 | 0 | 0.0 | 0.0 | 0.02 | 0.49 | 0.02 | 78 | 1015.9 |
| 20260904171025 | 90 | 0 | 0.0 | 0.0 | 0.00 | 0.47 | 0.00 | 73 | 1016.1 |
| 20260904170004 | 91 | 0 | 0.0 | 0.0 | 0.00 | 0.47 | 0.00 | 71 | 1016.1 |
| 20260904165004 | 91 | 0 | 0.0 | 0.0 | 0.00 | 0.47 | 0.00 | 72 | 1016.3 |
| 20260904164004 | 92 | 0 | 0.0 | 0.0 | 0.00 | 0.47 | 0.00 | 70 | 1016.3 |
| 20260904163004 | 92 | 228 | 0.0 | 1.0 | 0.00 | 0.47 | 0.00 | 72 | 1016.5 |
| 20260904162004 | 92 | 0 | 0.0 | 0.0 | 0.00 | 0.47 | 0.00 | 70 | 1016.5 |
| 20260904161004 | 92 | 62 | 0.0 | 1.0 | 0.00 | 0.47 | 0.00 | 72 | 1016.6 |
| 20260904160004 | 92 | 205 | 0.0 | 2.0 | 0.00 | 0.47 | 0.00 | 71 | 1016.8 |
| 20260904155004 | 91 | 195 | 2.0 | 5.0 | 0.00 | 0.47 | 0.00 | 73 | 1016.9 |
| 20260904154004 | 90 | 207 | 2.0 | 6.0 | 0.00 | 0.47 | 0.00 | 73 | 1017.0 |
| 20260904153004 | 89 | 210 | 1.0 | 5.0 | 0.00 | 0.47 | 0.00 | 72 | 1017.0 |
| 20260904152004 | 90 | 235 | 0.0 | 3.0 | 0.00 | 0.47 | 0.00 | 73 | 1016.9 |
| 20260904151025 | 90 | 192 | 0.0 | 3.0 | 0.00 | 0.47 | 0.00 | 76 | 1016.8 |
| 20260904150004 | 89 | 181 | 1.0 | 6.0 | 0.00 | 0.47 | 0.00 | 74 | 1016.7 |
| 20260904145004 | 89 | 187 | 1.0 | 6.0 | 0.00 | 0.47 | 0.00 | 77 | 1016.6 |
| 20260904144004 | 89 | 207 | 0.0 | 5.0 | 0.00 | 0.47 | 0.00 | 79 | 1016.7 |
| 20260904143004 | 89 | 244 | 0.0 | 5.0 | 0.00 | 0.47 | 0.00 | 77 | 1016.4 |
| 20260904142004 | 88 | 0 | 0.0 | 0.0 | 0.00 | 0.47 | 0.00 | 80 | 1016.4 |
| 20260904141025 | 87 | 0 | 0.0 | 0.0 | 0.00 | 0.47 | 0.00 | 83 | 1016.5 |
| 20260904140004 | 86 | 0 | 0.0 | 0.0 | 0.00 | 0.47 | 0.00 | 84 | 1016.4 |
| 20260904135004 | 85 | 0 | 0.0 | 0.0 | 0.00 | 0.47 | 0.00 | 84 | 1016.3 |
| 20260904134004 | 84 | 221 | 0.0 | 1.0 | 0.00 | 0.47 | 0.00 | 86 | 1016.4 |
| 20260904133004 | 83 | 217 | 1.0 | 5.0 | 0.00 | 0.47 | 0.00 | 86 | 1016.2 |
| 20260904132004 | 83 | 210 | 0.0 | 6.0 | 0.00 | 0.47 | 0.00 | 89 | 1016.1 |
| 20260904131004 | 82 | 0 | 0.0 | 0.0 | 0.00 | 0.47 | 0.00 | 93 | 1016.1 |
| 20260904130004 | 81 | 208 | 0.0 | 2.0 | 0.00 | 0.47 | 0.00 | 93 | 1016.0 |
| 20260904125004 | 80 | 207 | 0.0 | 3.0 | 0.00 | 0.47 | 0.00 | 94 | 1015.9 |
| 20260904124004 | 79 | 0 | 0.0 | 0.0 | 0.00 | 0.47 | 0.00 | 94 | 1015.7 |
| 20260904123004 | 78 | 0 | 0.0 | 0.0 | 0.00 | 0.47 | 0.00 | 95 | 1015.7 |
| 20260904122004 | 78 | 0 | 0.0 | 0.0 | 0.00 | 0.47 | 0.00 | 95 | 1015.7 |
| 20260904121004 | 78 | 0 | 0.0 | 0.0 | 0.00 | 0.47 | 0.00 | 95 | 1015.6 |
| 20260904120004 | 77 | 0 | 0.0 | 0.0 | 0.00 | 0.47 | 0.00 | 95 | 1015.5 |
| 20260904115004 | 76 | 0 | 0.0 | 0.0 | 0.00 | 0.47 | 0.00 | 95 | 1015.6 |
| 20260904114004 | 76 | 0 | 0.0 | 0.0 | 0.00 | 0.47 | 0.00 | 95 | 1015.3 |
| 20260904113025 | 76 | 0 | 0.0 | 0.0 | 0.00 | 0.47 | 0.00 | 94 | 1015.2 |
| 20260904112004 | 76 | 0 | 0.0 | 0.0 | 0.00 | 0.47 | 0.00 | 94 | 1015.2 |
| 20260904111004 | 76 | 0 | 0.0 | 0.0 | 0.00 | 0.47 | 0.00 | 94 | 1015.2 |
| 20260904110004 | 76 | 0 | 0.0 | 0.0 | 0.00 | 0.47 | 0.00 | 94 | 1015.2 |
| 20260904105004 | 76 | 0 | 0.0 | 0.0 | 0.00 | 0.47 | 0.00 | 94 | 1015.1 |
| 20260904104004 | 76 | 0 | 0.0 | 0.0 | 0.00 | 0.47 | 0.00 | 94 | 1014.8 |
| 20260904103004 | 76 | 0 | 0.0 | 0.0 | 0.00 | 0.47 | 0.00 | 94 | 1014.9 |
| 20260904102004 | 76 | 0 | 0.0 | 0.0 | 0.00 | 0.47 | 0.00 | 94 | 1014.7 |
| 20260904101004 | 77 | 0 | 0.0 | 0.0 | 0.00 | 0.47 | 0.00 | 94 | 1014.6 |
| 20260904100025 | 77 | 0 | 0.0 | 0.0 | 0.00 | 0.47 | 0.00 | 94 | 1014.6 |
| 20260904095004 | 77 | 0 | 0.0 | 0.0 | 0.00 | 0.47 | 0.00 | 94 | 1014.5 |
| 20260904094004 | 77 | 0 | 0.0 | 0.0 | 0.00 | 0.47 | 0.00 | 94 | 1014.4 |
| 20260904093004 | 77 | 0 | 0.0 | 0.0 | 0.00 | 0.47 | 0.00 | 94 | 1014.3 |
| 20260904092004 | 77 | 0 | 0.0 | 0.0 | 0.00 | 0.47 | 0.00 | 94 | 1014.3 |
| 20260904091004 | 77 | 0 | 0.0 | 0.0 | 0.00 | 0.47 | 0.00 | 94 | 1014.3 |
| 20260904090004 | 77 | 0 | 0.0 | 0.0 | 0.00 | 0.47 | 0.00 | 94 | 1014.2 |
| 20260904085004 | 77 | 0 | 0.0 | 0.0 | 0.00 | 0.47 | 0.00 | 94 | 1014.0 |
| 20260904084025 | 77 | 0 | 0.0 | 0.0 | 0.00 | 0.47 | 0.00 | 94 | 1014.1 |
| 20260904083025 | 77 | 0 | 0.0 | 0.0 | 0.00 | 0.47 | 0.00 | 94 | 1014.2 |
| 20260904082004 | 78 | 0 | 0.0 | 0.0 | 0.00 | 0.47 | 0.00 | 94 | 1014.2 |
| 20260904081004 | 78 | 0 | 0.0 | 0.0 | 0.00 | 0.47 | 0.00 | 94 | 1014.2 |
| 20260904080025 | 78 | 0 | 0.0 | 0.0 | 0.00 | 0.47 | 0.00 | 94 | 1014.2 |
| 20260904075004 | 78 | 0 | 0.0 | 0.0 | 0.00 | 0.47 | 0.00 | 94 | 1014.1 |
| 20260904074004 | 78 | 0 | 0.0 | 0.0 | 0.00 | 0.47 | 0.00 | 94 | 1014.0 |
| 20260904073025 | 78 | 0 | 0.0 | 0.0 | 0.00 | 0.47 | 0.00 | 94 | 1013.9 |
| 20260904072004 | 78 | 0 | 0.0 | 0.0 | 0.00 | 0.47 | 0.00 | 94 | 1014.0 |
| 20260904071004 | 78 | 0 | 0.0 | 0.0 | 0.00 | 0.47 | 0.00 | 94 | 1013.9 |
| 20260904070004 | 78 | 0 | 0.0 | 0.0 | 0.00 | 0.47 | 0.00 | 94 | 1014.2 |
| 20260904065004 | 78 | 0 | 0.0 | 0.0 | 0.00 | 0.47 | 0.00 | 94 | 1014.2 |
| 20260904064004 | 78 | 0 | 0.0 | 0.0 | 0.00 | 0.47 | 0.00 | 94 | 1014.3 |
| 20260904063003 | 78 | 0 | 0.0 | 0.0 | 0.00 | 0.47 | 0.00 | 94 | 1014.2 |
| 20260904062004 | 78 | 0 | 0.0 | 0.0 | 0.00 | 0.47 | 0.00 | 94 | 1014.4 |
| 20260904061004 | 78 | 0 | 0.0 | 0.0 | 0.00 | 0.47 | 0.00 | 93 | 1014.6 |
| 20260904060025 | 78 | 0 | 0.0 | 0.0 | 0.00 | 0.47 | 0.00 | 93 | 1014.6 |
| 20260904055004 | 78 | 0 | 0.0 | 0.0 | 0.00 | 0.47 | 0.00 | 93 | 1014.7 |
| 20260904054004 | 78 | 0 | 0.0 | 0.0 | 0.00 | 0.47 | 0.00 | 93 | 1014.9 |
| 20260904053004 | 78 | 0 | 0.0 | 0.0 | 0.00 | 0.47 | 0.00 | 93 | 1014.9 |
| 20260904052004 | 78 | 0 | 0.0 | 0.0 | 0.00 | 0.47 | 0.00 | 93 | 1014.8 |
| 20260904051004 | 78 | 0 | 0.0 | 0.0 | 0.00 | 0.47 | 0.00 | 93 | 1015.0 |
| 20260904050004 | 78 | 0 | 0.0 | 0.0 | 0.00 | 0.47 | 0.00 | 93 | 1015.1 |
| 20260904045004 | 78 | 0 | 0.0 | 0.0 | 0.00 | 0.47 | 0.00 | 93 | 1015.2 |
| 20260904044004 | 78 | 0 | 0.0 | 0.0 | 0.00 | 0.47 | 0.00 | 93 | 1015.1 |
| 20260904043004 | 78 | 0 | 0.0 | 0.0 | 0.00 | 0.47 | 0.00 | 93 | 1015.2 |
| 20260904042004 | 78 | 0 | 0.0 | 0.0 | 0.00 | 0.47 | 0.00 | 93 | 1014.9 |
| 20260904041004 | 78 | 0 | 0.0 | 0.0 | 0.00 | 0.47 | 0.00 | 93 | 1015.0 |
| 20260904040004 | 78 | 0 | 0.0 | 0.0 | 0.00 | 0.47 | 0.00 | 93 | 1015.0 |
| 20260904035004 | 78 | 0 | 0.0 | 0.0 | 0.00 | 0.47 | 0.47 | 93 | 1015.0 |
| 20260904034003 | 78 | 0 | 0.0 | 0.0 | 0.00 | 0.47 | 0.47 | 93 | 1015.0 |
| 20260904033004 | 78 | 0 | 0.0 | 0.0 | 0.00 | 0.47 | 0.47 | 93 | 1014.9 |
| 20260904032003 | 78 | 0 | 0.0 | 0.0 | 0.00 | 0.47 | 0.47 | 93 | 1014.9 |
| 20260904031004 | 78 | 0 | 0.0 | 0.0 | 0.00 | 0.47 | 0.47 | 93 | 1015.0 |
| 20260904030004 | 78 | 0 | 0.0 | 0.0 | 0.00 | 0.47 | 0.47 | 93 | 1014.8 |
| 20260904025004 | 78 | 0 | 0.0 | 0.0 | 0.00 | 0.47 | 0.47 | 93 | 1014.8 |
| 20260904024004 | 78 | 0 | 0.0 | 0.0 | 0.00 | 0.47 | 0.47 | 93 | 1014.9 |
| 20260904023004 | 78 | 0 | 0.0 | 0.0 | 0.00 | 0.47 | 0.47 | 93 | 1015.1 |
| 20260904022004 | 78 | 0 | 0.0 | 0.0 | 0.00 | 0.47 | 0.47 | 93 | 1015.0 |
| 20260904021025 | 78 | 0 | 0.0 | 0.0 | 0.00 | 0.47 | 0.47 | 93 | 1015.2 |
| 20260904020004 | 78 | 0 | 0.0 | 0.0 | 0.00 | 0.47 | 0.47 | 93 | 1015.2 |
| 20260904015004 | 78 | 0 | 0.0 | 0.0 | 0.00 | 0.47 | 0.47 | 93 | 1015.2 |
| 20260904014004 | 78 | 109 | 0.0 | 1.0 | 0.00 | 0.47 | 0.47 | 93 | 1015.2 |
| 20260904013025 | 78 | 69 | 0.0 | 2.0 | 0.00 | 0.47 | 0.47 | 92 | 1015.1 |
| 20260904012003 | 78 | 81 | 0.0 | 1.0 | 0.00 | 0.47 | 0.47 | 93 | 1014.8 |
| 20260904011003 | 78 | 0 | 0.0 | 0.0 | 0.00 | 0.47 | 0.47 | 92 | 1014.8 |
| 20260904010004 | 78 | 0 | 0.0 | 0.0 | 0.00 | 0.47 | 0.47 | 92 | 1014.7 |
| 20260904005003 | 78 | 71 | 0.0 | 2.0 | 0.00 | 0.47 | 0.47 | 92 | 1014.6 |
| 20260904004003 | 77 | 54 | 1.0 | 5.0 | 0.00 | 0.47 | 0.47 | 92 | 1014.6 |
| 20260904003004 | 77 | 51 | 4.0 | 8.0 | 0.00 | 0.47 | 0.47 | 92 | 1014.5 |
| 20260904002003 | 77 | 51 | 2.0 | 5.0 | 0.00 | 0.47 | 0.47 | 92 | 1014.4 |
| 20260904001004 | 77 | 44 | 0.0 | 3.0 | 0.00 | 0.56 | 0.47 | 92 | 1014.6 |
| 20260904000004 | 77 | 49 | 1.0 | 5.0 | 0.00 | 0.56 | 0.47 | 92 | 1014.6 |
| 20260903235004 | 77 | 51 | 1.0 | 5.0 | 0.00 | 0.56 | 0.47 | 92 | 1014.7 |
| 20260903234003 | 77 | 51 | 0.0 | 5.0 | 0.00 | 0.56 | 0.47 | 92 | 1014.6 |
| 20260903233024 | 77 | 46 | 1.0 | 5.0 | 0.00 | 0.56 | 0.47 | 92 | 1014.5 |
| 20260903232003 | 77 | 55 | 2.0 | 7.0 | 0.00 | 0.56 | 0.47 | 92 | 1014.3 |
| 20260903231024 | 77 | 51 | 6.0 | 10.0 | 0.00 | 0.56 | 0.47 | 92 | 1014.3 |
| 20260903230024 | 77 | 50 | 6.0 | 9.0 | 0.00 | 0.56 | 0.47 | 92 | 1014.2 |
| 20260903225003 | 78 | 49 | 9.0 | 12.0 | 0.01 | 0.56 | 0.47 | 92 | 1014.3 |
| 20260903224003 | 78 | 45 | 6.0 | 12.0 | 0.01 | 0.56 | 0.47 | 92 | 1014.3 |
| 20260903223004 | 78 | 34 | 4.0 | 8.0 | 0.01 | 0.56 | 0.47 | 92 | 1014.1 |
| 20260903222004 | 78 | 44 | 6.0 | 10.0 | 0.03 | 0.56 | 0.47 | 92 | 1013.9 |
| 20260903221025 | 78 | 49 | 5.0 | 9.0 | 0.04 | 0.56 | 0.47 | 92 | 1013.6 |
| 20260903220025 | 78 | 49 | 4.0 | 6.0 | 0.04 | 0.56 | 0.47 | 92 | 1013.4 |
| 20260903215003 | 78 | 46 | 1.0 | 7.0 | 0.04 | 0.55 | 0.46 | 92 | 1013.2 |
| 20260903214003 | 78 | 24 | 2.0 | 4.0 | 0.08 | 0.55 | 0.46 | 92 | 1013.3 |
| 20260903213024 | 78 | 17 | 1.0 | 6.0 | 0.11 | 0.55 | 0.46 | 93 | 1013.5 |
| 20260903212003 | 78 | 39 | 4.0 | 9.0 | 0.11 | 0.53 | 0.44 | 93 | 1013.6 |
| 20260903211024 | 76 | 0 | 0.0 | 0.0 | 0.12 | 0.52 | 0.43 | 92 | 1013.6 |
| 20260903210024 | 77 | 278 | 0.0 | 1.0 | 0.14 | 0.52 | 0.43 | 93 | 1013.6 |
| 20260903204003 | 77 | 236 | 6.0 | 14.0 | 0.28 | 0.47 | 0.38 | 92 | 1013.4 |
| 20260903203024 | 77 | 212 | 5.0 | 13.0 | 0.31 | 0.44 | 0.35 | 91 | 1013.7 |
| 20260903202004 | 77 | 278 | 7.0 | 15.0 | 0.33 | 0.42 | 0.33 | 91 | 1014.0 |
| 20260903201003 | 77 | 195 | 7.0 | 18.0 | 0.31 | 0.40 | 0.31 | 90 | 1013.7 |
| 20260903200003 | 79 | 193 | 4.0 | 13.0 | 0.29 | 0.38 | 0.29 | 89 | 1013.7 |
| 20260903195003 | 80 | 176 | 1.0 | 3.0 | 0.24 | 0.33 | 0.24 | 88 | 1013.5 |
| 20260903194003 | 81 | 214 | 3.0 | 7.0 | 0.10 | 0.19 | 0.10 | 85 | 1013.4 |
| 20260903193003 | 84 | 238 | 6.0 | 14.0 | 0.04 | 0.13 | 0.04 | 78 | 1013.0 |
| 20260903192003 | 90 | 170 | 0.0 | 4.0 | 0.00 | 0.09 | 0.00 | 72 | 1013.1 |
| 20260903191003 | 91 | 45 | 0.0 | 1.0 | 0.00 | 0.09 | 0.00 | 69 | 1013.2 |
| 20260903190024 | 91 | 45 | 0.0 | 2.0 | 0.00 | 0.09 | 0.00 | 70 | 1013.3 |
| 20260903185003 | 91 | 45 | 1.0 | 3.0 | 0.00 | 0.09 | 0.00 | 67 | 1013.4 |